Skip Navigation Links
NOAA logo - Click to go to the NOAA homepage
NOAA's National Weather Service
Alaska Aviation Weather Unit
  NWS logo - Click to go to the NWS homepage
Left Navbar Graphic     22 AKDT = 06 GMT

   
NOAA is celebrating 200 years of science, service, and stewardship. Visit the NOAA 200th celebration Web site to learn more.
USA.gov is the U.S. Government's official Web portal to all Federal, state and local government Web resources and services.
Facebook
NWS on Facebook

Important Change Regarding the AAWU Web Presence

 

Over the last several months, the AAWU has been working to navigate its webpages to a nationally supported server. Security, as well as other needs, have necessitated the change.  In the process, we have made an effort to enhance the functionality of our website, as well as some of our products. As of June 20, 2017, aawu.arh.noaa.gov will be discontinued. The new AAWU web address is weather.gov/aawu. It is now live and will run in-parallel with the old site until it is discontinued. Please send any feedback or questions regarding the new webpages to nws.ar.aawu.webauthors@noaa.gov.  Thank you for your patience during this time of transition.
AAWU Home :: Display TAF Add Bookmark
SPECI PPIZ 280024Z AUTO 21013KT 10SM -RA FEW036 BKN043 OVC070 04/01
      A2999 RMK AO2 PK WND 20026/0009 WSHFT 0004 RAB13 P0000 TSNO=

METAR PPIZ 280156Z AUTO 30003KT 10SM SCT038 BKN047 BKN055 08/01 A2999
      RMK AO2 RAE55 SLP160 P0000 T00780011 TSNO=

METAR PPIZ 280256Z AUTO 36004KT 10SM CLR 06/01 A2999 RMK AO2 SLP160
     60000 T00560011 51003 TSNO=

METAR PPIZ 280356Z AUTO 34005KT 10SM FEW055 SCT070 OVC095 04/01 A2999
     RMK AO2 SLP161 T00390006 TSNO=

METAR PPIZ 280456Z AUTO 00000KT 10SM BKN060 05/01 A2999 RMK AO2 SLP160
     T00500006 TSNO=

METAR PPIZ 280556Z AUTO 29003KT 10SM CLR 04/01 A2999 RMK AO2 SLP158
     60000 T00440006 10083 20039 58002 TSNO=


NOAA's National Weather Service
Alaska Aviation Weather Unit
6930 Sand Lake Road
Anchorage, AK 99502-1845
Disclaimer
Credits
Glossary
Privacy Policy
About Us
Career Opportunities
Contact AAWU Internet Services Site last modified: April, 17th 2012